AEROCUBE 14A (45114 NORAD) Tracking and Keplerian Element Data

This shows tracking and keplerian element data for the satellite.

Feedback or suggestion? Click here.




ElementValue
Catalog45114
NameAEROCUBE 14A
Epoch Orbit953
Epoch Day93.87323268
Epoch Year2020
RAAN8.5506
Inclination51.6439
Eccentricity0.0012358
Argument of Perigee144.802
Mean Anonmoly215.3781
Mean Motion15.33122763
Decay Rate1.527E-05
L11 45114U 19071D 20093.87323268 .00001527 00000-0 58544-4 0 9991
L22 45114 51.6439 8.5506 0012358 144.8020 215.3781 15.33122763 9534

Live tracking and technical data element details for AEROCUBE 14A (NORAD 45114). AEROCUBE 14A can be tracked NOW for your location showing map with azimuth and elevation plus other details from your city location.

Track the satellite on the map from your city or location and see movement details for azimuth, elevation, latitude, longitude, range, height, and movement on the map or in text.







IsCatalogInMostPopularTable: catalog: 45114, numindb: 16
Update: records affected: 1



GetName: 45114 AEROCUBE 14A

Hit Count: updated at: Mon, 06 Apr 2020 16:00:05 GMT